Flag for U.S.A. Weather past 2 weeks in St. Croix Falls, Wisconsin, U.S.A.

Now
68 °F

Mostly cloudy.


Feels Like: 68 °F
Forecast: 64 / 73 °F
Wind: 10 mph from Southeast

Location: L O Simenstad Municipal Airport

Current Time: Aug 28, 2014 at 7:14:03 PM

Latest Report: Aug 28, 2014 at 6:35 PM


Visibility: 10 mi

Pressure: 30.01 "Hg

Humidity: 84%

Dew point: 63 °F

Location of St. Croix FallsLocation

Historic Weather in St. Croix Falls — Graph

°F

St. Croix Falls temperature yesterday

Maximum temperature yesterday: 73 °F (at 4:55 PM)
Minimum temperature yesterday: 55 °F (at 6:35 AM)
Average temperature yesterday: 64 °F

Past Weeks' High & Low Weather Summary

 TemperatureHumidityPressure
High84 °F (Aug 24, 3:55 PM)100% (Aug 14, 12:15 AM)30.26 "Hg (Aug 14, 12:15 AM)
Low53 °F (Aug 14, 5:55 AM)42% (Aug 13, 5:55 PM)29.65 "Hg (Aug 18, 8:15 PM)
Average69 °F85%29.97 "Hg
* Reported Aug 13 5:15 PM — Aug 28 5:55 PM, St. Croix Falls, Weather by CustomWeather, © 2014

Note: Actual official high and low records may vary slightly from our data, if they occured in-between our weather recording intervals... More about our weather records

Advertising

St. Croix Falls weather history for previous 24 hours

 ConditionsComfort  
Time TempWeatherWind HumidityBarometerVisibility
5:55 PM
Aug 28
69 °FMostly cloudy.8 mph79%30.01 "Hg10 mi
5:35 PM69 °FMostly cloudy.9 mph79%30.01 "Hg10 mi
5:15 PM70 °FMostly cloudy.9 mph79%30.01 "Hg10 mi
4:55 PM70 °FMostly cloudy.8 mph79%30.01 "Hg10 mi
4:35 PM70 °FDrizzle. Cloudy.7 mph80%30.02 "Hg10 mi
4:15 PM70 °FDrizzle. More clouds than sun.8 mph79%30.02 "Hg10 mi
3:55 PM70 °FBroken clouds.6 mph78%30.03 "Hg10 mi
3:35 PM70 °FScattered clouds.9 mph77%30.03 "Hg10 mi
3:15 PM71 °FScattered clouds.9 mph75%30.04 "Hg10 mi
2:55 PM71 °FPartly sunny.8 mph75%30.04 "Hg10 mi
2:35 PM71 °FBroken clouds.9 mph74%30.05 "Hg10 mi
2:15 PM71 °FPartly sunny.10 mph73%30.05 "Hg10 mi
1:55 PM71 °FPartly sunny.10 mph71%30.06 "Hg10 mi
1:35 PM72 °FScattered clouds.9 mph70%30.06 "Hg10 mi
1:15 PM72 °FSunny.8 mph67%30.07 "Hg10 mi
12:55 PM72 °FSunny.9 mph67%30.08 "Hg10 mi
12:35 PM71 °FScattered clouds.12 mph68%30.09 "Hg10 mi
12:15 PM72 °FPartly sunny.10 mph66%30.09 "Hg10 mi
11:55 AM71 °FPartly sunny.12 mph68%30.10 "Hg10 mi
11:35 AM71 °FSunny.10 mph68%30.11 "Hg10 mi
11:15 AM70 °FScattered clouds.9 mph68%30.11 "Hg10 mi
10:15 AM68 °FScattered clouds.7 mph69%30.13 "Hg10 mi
9:55 AM67 °FSunny.8 mph70%30.13 "Hg10 mi
9:35 AM64 °FSunny.7 mph73%30.13 "Hg10 mi
9:15 AM64 °FSunny.7 mph74%30.12 "Hg10 mi
8:55 AM62 °FSunny.7 mph77%30.13 "Hg10 mi
8:35 AM61 °FSunny.7 mph78%30.13 "Hg10 mi
8:15 AM60 °FSunny.8 mph80%30.13 "Hg10 mi
7:55 AM60 °FSunny.8 mph84%30.13 "Hg10 mi
7:35 AM59 °FSunny.7 mph84%30.13 "Hg10 mi
7:15 AM58 °FClear.5 mph92%30.13 "Hg10 mi
6:35 AM57 °FClear.5 mph94%30.13 "Hg10 mi
6:15 AM57 °FClear.3 mph94%30.12 "Hg10 mi
5:55 AM58 °FClear.5 mph88%30.12 "Hg10 mi
5:35 AM58 °FClear.5 mph87%30.13 "Hg10 mi
5:15 AM59 °FClear.3 mph84%30.12 "Hg10 mi
4:55 AM60 °FClear.3 mph82%30.13 "Hg10 mi
4:15 AM61 °FPassing clouds.5 mph83%30.13 "Hg10 mi
3:55 AM62 °FOvercast.5 mph81%30.14 "Hg10 mi
3:35 AM62 °FOvercast.3 mph80%30.15 "Hg10 mi
3:15 AM62 °FOvercast.5 mph79%30.15 "Hg10 mi
2:55 AM62 °FOvercast.5 mph81%30.16 "Hg10 mi
2:35 AM63 °FOvercast.5 mph81%30.16 "Hg10 mi
2:15 AM63 °FOvercast.3 mph81%30.16 "Hg10 mi
1:55 AM62 °FOvercast.No wind91%30.17 "Hg10 mi
1:35 AM62 °FOvercast.3 mph91%30.17 "Hg10 mi
1:15 AM61 °FOvercast.No wind94%30.17 "Hg10 mi
12:55 AM61 °FOvercast.No wind93%30.17 "Hg10 mi
12:35 AM60 °FOvercast.No wind97%30.18 "Hg10 mi
12:15 AM59 °FPassing clouds.3 mph98%30.18 "Hg10 mi
11:55 PM
Aug 27
60 °FClear.No wind97%30.18 "Hg10 mi
11:35 PM59 °FClear.5 mph97%30.18 "Hg10 mi
11:15 PM60 °FClear.6 mph98%30.18 "Hg10 mi
10:55 PM61 °FPassing clouds.No wind94%30.18 "Hg10 mi
10:35 PM62 °FOvercast.3 mph96%30.18 "Hg10 mi
10:15 PM61 °FPassing clouds.No wind95%30.18 "Hg10 mi
9:55 PM61 °FClear.No wind90%30.17 "Hg10 mi
9:35 PM61 °FClear.No wind90%30.17 "Hg10 mi
9:15 PM62 °FClear.No wind84%30.17 "Hg10 mi
8:55 PM63 °FSunny.No wind84%30.17 "Hg10 mi
8:35 PM64 °FSunny.3 mph79%30.16 "Hg10 mi
8:15 PM64 °FSunny.5 mph79%30.16 "Hg10 mi
7:55 PM66 °FSunny.3 mph73%30.16 "Hg10 mi
7:35 PM68 °FSunny.5 mph69%30.16 "Hg10 mi
7:15 PM69 °FSunny.6 mph66%30.16 "Hg10 mi
Weather by CustomWeather, © 2014

See weather overviewHow to use our weather pages